Regional Weather Roundup
Issued by NWS

Home | Current Version | Previous Version | Text Only | Print | Product List | Glossary Off
Versions: 1 2 3 4 5 6 7 8 9 10 11 12 13 14 15 16 17 18 19 20 21 22 23 24 25 26 27 28 29 30 31 32 33 34 35 36 37 38 39 40 41 42 43 44 45 46 47 48 49 50

000
ASUS43 KLOT 281306
RWRIL

ILLINOIS REGIONAL WEATHER ROUNDUP
NATIONAL WEATHER SERVICE CHICAGO/ROMEOVILLE IL
700 AM CST SUN DEC 28 2014

NOTE: "FAIR" INDICATES FEW OR NO CLOUDS BELOW 12,000 FEET WITH NO
SIGNIFICANT WEATHER AND/OR OBSTRUCTIONS TO VISIBILITY.

* THESE STATIONS ARE NOT UNDER NWS QUALITY CONTROL. THEY ALSO MAY NOT
  REPORT WEATHER SUCH AS PRECIPITATION OR FOG.

ILZ001-002-007-009-015-016-024-281400-
NORTHWEST ILLINOIS

CITY           SKY/WX    TMP DP  RH WIND       PRES   REMARKS
MOLINE         PTCLDY    18  14  84 SW5       30.19S WCI  11
STERLING*      PTCLDY    19  12  73 W7        30.18R WCI  10
SAVANNA*       CLEAR     20  16  84 W3        30.18S
$$

ILZ003-004-008-010-011-017-018-281400-
NORTH CENTRAL ILLINOIS

CITY           SKY/WX    TMP DP  RH WIND       PRES   REMARKS
ROCKFORD       PTCLDY    19  14  81 W5        30.18S WCI  12
FREEPORT*      CLEAR     17  14  87 W6        30.17S WCI   9
ROCHELLE*      PTCLDY    19  16  89 W5        30.17R WCI  12
DE KALB*       MOCLDY    19  17  89 W8        30.15R WCI   9
PERU*          MOCLDY    21  18  86 W7        30.20R WCI  13
$$

ILZ005-006-012>014-019>023-281400-
NORTHEAST ILLINOIS

CITY           SKY/WX    TMP DP  RH WIND       PRES   REMARKS
CHICAGO-OHARE  PTCLDY    22  18  85 W6        30.14F WCI  14
CHICAGO-MIDWAY MOCLDY    26  20  77 W10       30.15S WCI  16
AURORA         PTCLDY    22  17  81 W7        30.16F WCI  13
LANSING*       CLOUDY    26  21  80 NW7       30.16S WCI  19
JOLIET*        PTCLDY    23  19  85 W3        30.17S
WAUKEGAN       PTCLDY    22  18  85 W5        30.12F WCI  16
DUPAGE AIRPORT FAIR      22  18  85 W5        30.14F WCI  16
KANKAKEE*      CLOUDY    26  22  85 W9        30.18R WCI  17
WHEELING       PTCLDY    23  18  81 W3        30.16S
MORRIS*        MOCLDY    20  19  95 NW6       30.17S WCI  13
ROMEOVILLE*    CLOUDY    24  20  85 W8        30.16S WCI  15
NORTHERLY ISL    N/A     27  20  75 W7          N/A  WCI  20
$$

LMZ740>746-281400-
SOUTHERN LAKE MICHIGAN

STATION/POSITION SKY/WX   TEMP    WIND        PRES    VSBY  WAVE
                          AIR SEA DIR/SP/G                  HT/PER
                          (F)     (DEG/KT/KT) (MB)    (MI)  (FT/S)
WAUKEGAN HARBOR            25     270/  3/  7   N/A
HARRISON CRIB              25     270/ 13/ 15   N/A
BURNHAM HARBOR             26     280/  8/ 11   N/A
CALUMET HARBOR             27     220/  4/  9 1019.6F
MICHIGAN CITY              31     260/ 10/ 12   N/A
$$

ILZ025>027-034>036-040-047-049-050-058-095>099-281400-
WEST-CENTRAL ILLINOIS

CITY           SKY/WX    TMP DP  RH WIND       PRES   REMARKS
QUINCY         MOCLDY    26  21  81 NW5       30.21S WCI  20
GALESBURG*     MOCLDY    20  18  92 W3        30.20S
MACOMB*        PTCLDY    24  22  91 CALM      30.23S
JACKSONVILLE*  CLOUDY    30  24  78 W9        30.22R WCI  22
PITTSFIELD*    CLOUDY    29  23  79 W3        30.23S
$$

ILZ028>032-037-038-041>044-048-051>054-059>061-281400-
CENTRAL ILLINOIS

CITY           SKY/WX    TMP DP  RH WIND       PRES   REMARKS
PONTIAC        CLOUDY    23  19  85 W9        30.20S WCI  13
BLOOMINGTON    CLOUDY    24  20  85 NW13      30.19S WCI  12
DECATUR        CLOUDY    28  22  78 NW8       30.20S WCI  20
PEORIA         MOCLDY    24  18  77 NW6       30.21R WCI  17
LACON*         MOCLDY    21  17  83 W3        30.20R
LINCOLN*       CLOUDY    28  22  80 NW6       30.22S WCI  21
SPRINGFIELD    CLOUDY    29  23  78 N5        30.21R WCI  24
TAYLORVILLE    CLOUDY    28  25  86 NW7       30.21S WCI  21
$$

ILZ033-039-045-046-055>057-062-063-281400-
EAST-CENTRAL ILLINOIS

CITY           SKY/WX    TMP DP  RH WIND       PRES   REMARKS
CHAMPAIGN      CLOUDY    27  22  81 NW9       30.19R WCI  18
DANVILLE*      CLOUDY    27  23  84 NW9       30.15S WCI  18
RANTOUL*       CLOUDY    27  20  75 NW13      30.19R WCI  17
MATTOON        CLOUDY    28  23  81 N13       30.19R WCI  17
PARIS*         CLOUDY    30  27  90 NW5       30.20S WCI  25
$$

ILZ079-100>102-281400-
SOUTHWEST ILLINOIS

CITY           SKY/WX    TMP DP  RH WIND       PRES   REMARKS
ALTON          CLOUDY    32  25  74 NW8       30.23R WCI  25
BELLEVILLE     CLOUDY    32  27  82 NW8       30.23R WCI  24
CAHOKIA*       CLOUDY    32  26  78 N7        30.23R WCI  26
SPARTA*        CLOUDY    32  26  81 NW7       30.22R WCI  25
$$

ILZ064>066-069>071-074>076-080>082-084>086-088>090-092>094-281400-
SOUTH-CENTRAL ILLINOIS

CITY           SKY/WX    TMP DP  RH WIND       PRES   REMARKS
CARBONDALE     CLOUDY    33  27  78 N5        30.21R WCI  29
CAIRO*         CLOUDY    37  32  82 N12       30.21R WCI  29
EFFINGHAM*     CLOUDY    31  24  74 NW9       30.21S WCI  23
MARION         CLOUDY    34  28  80 N9        30.22R WCI  26
MT. VERNON     CLOUDY    32  23  69 N5        30.21R WCI  27
CENTRALIA*     CLOUDY    31  27  83 N8        30.21R WCI  24
SALEM*         CLOUDY    32  28  83 N8        30.21R WCI  25
METROPOLIS*    CLOUDY    35  34  96 N9        30.19S WCI  28
$$

ILZ067-068-072-073-078-083-087-091-281400-
SOUTHEAST ILLINOIS

CITY           SKY/WX    TMP DP  RH WIND       PRES   REMARKS
LAWRENCEVILLE  CLOUDY    33  28  81 N9        30.19F WCI  25
FLORA*         CLOUDY    32  28  85 N8        30.20R WCI  25
FAIRFIELD*     CLOUDY    32  28  85 NW5       30.19S WCI  27
HARRISBURG*    CLOUDY    33  29  88 N8        30.22S WCI  25
ROBINSON*      CLOUDY    32  28  83 N8        30.19F WCI  25
CARMI*         CLOUDY    34  32  91 NW8       30.20S WCI  28
$$

ABBREVIATIONS USED IN REMARKS
   TC - TEMPERATURE IN CELSIUS
  WCI - WIND CHILL INDEX
   HX - HEAT INDEX
  VSB - VISIBILITY
$$




USA.gov is the U.S. government's official web portal to all federal, state and local government web resources and services.